THORAD AGENA D DEB, 5389

Orbit data source: Space-Track

THORAD AGENA D DEB, 5389 is space debris in SSO originally from a launch on Wed, 08 Apr 1970 UTC launched from the Air Force Western Test Range (AFWTR). Debris objects in space refer to the collection of defunct objects orbiting the Earth. Examples of debris include non-operational satellites, rocket bodies, and fragments generated from explosions, collisions, or faulty payload assembly.

Loading next visibility...
Identifier
5389, 1970-025KU
Orbit
SSO
Country
Flag of USUS
Related business
Manufacturer
Unknown
Mission
Spacecraft
Bus & Motor
Unknown
Mass
Unknown
Launch date (UTC)
1970-04-08 (56 years ago)
Launch vehicle
Unknown
Launch site
Air Force Western Test Range (AFWTR)
Object type
Payload
Rocket body
Debris
Shape & HBR
Unknown shape, 0.1 m
Radar Cross Section
Medium (>0.1 m² and <1 m²)

Expand to show TLE details & history
Last TLE update: 2 days ago

TLE from 2 days ago
0 THORAD AGENA D DEB
1 05389U 70025KU  26255.06910851  .00000089  00000-0  32480-3 0  9996
2 05389  99.7922 283.0950 0203145 107.3292 279.8659 13.11281003698819
Epoch: 2026-09-12T01:39Z
TLE epoch observation values (Epoch: 2026-09-12T01:39:30.975Z)
Latitude
24.53186°
Longitude
-97.36238°
Altitude
1,197.629 km
Speed
7.268 km/s
True Right ascension
18h 34m 24s
True Declination
24° 24' 35"
Sunlit
Object was in daylight at epoch
Visualization orbit readout
Latitude
Unknown
Longitude
Unknown
Altitude
Unknown
Speed
Unknown
Apparent Right ascension
Unknown
Apparent Declination
Unknown
Sunlit
N/A
Visualization observer readout
Local Sidereal Time
10:30:45
Azimuth
Unknown
Elevation
Unknown
Doppler factor
Unknown
Orbital elements
Apogee altitude
1,369.826 km
Perigee altitude
1,061.302 km
Semi-major axis
7,593.701 km
Eccentricity
0.02031
Inclination
99.7922°
RAAN
283.095°
Arg. of periapsis
107.3292°
True anomaly
277.56306°
Mean anomaly
279.8659°
Eccentric anomaly
278.7154°
Mean motion
3.27992 °/min
Orbital period
109.76 mins
BSTAR
0.0003248

Documentation

Showing up to 5 results
|